Wetterdaten: Samstag, 22.06.2013
Datum Zeit Temperatur Luftfeuchte Luftdruck Regen Wind Richtung Richtung Taupunkt Windchill Windben
22.06.2013 00:00 14,0 C 93 % 1021,7 hPa 0,0 l/m 0,2 km/h (0 Bft) W 270 12,9 C 14,0 C 0,0 km/h (0 Bft)
22.06.2013 00:05 14,0 C 93 % 1021,8 hPa 0,0 l/m 0,0 km/h (0 Bft) O-NO 67 12,9 C 14,1 C 0,0 km/h (0 Bft)
22.06.2013 00:10 14,0 C 93 % 1021,8 hPa 0,0 l/m 0,0 km/h (0 Bft) SO 135 12,9 C 14,1 C 1,9 km/h (1 Bft)
22.06.2013 00:15 14,0 C 93 % 1021,8 hPa 0,0 l/m 0,2 km/h (0 Bft) S 180 12,9 C 14,1 C 2,6 km/h (1 Bft)
22.06.2013 00:20 14,0 C 93 % 1021,8 hPa 0,0 l/m 0,5 km/h (0 Bft) NO 45 12,9 C 14,1 C 2,9 km/h (1 Bft)
22.06.2013 00:25 13,9 C 94 % 1021,9 hPa 0,7 l/m 1,1 km/h (1 Bft) NO 45 12,9 C 14,0 C 4,7 km/h (1 Bft)
22.06.2013 00:30 13,9 C 94 % 1021,9 hPa 0,7 l/m 1,6 km/h (1 Bft) S 180 12,9 C 13,9 C 4,3 km/h (1 Bft)
22.06.2013 00:35 13,8 C 94 % 1021,9 hPa 0,0 l/m 2,3 km/h (1 Bft) SO 135 12,9 C 13,9 C 2,3 km/h (1 Bft)
22.06.2013 00:40 13,8 C 94 % 1021,9 hPa 0,0 l/m 1,4 km/h (1 Bft) NO 45 12,9 C 13,8 C 0,0 km/h (0 Bft)
22.06.2013 00:45 13,8 C 94 % 1022,2 hPa 0,0 l/m 0,3 km/h (0 Bft) NO 45 12,9 C 13,8 C 0,0 km/h (0 Bft)
22.06.2013 00:50 13,7 C 94 % 1022,2 hPa 0,7 l/m 0,2 km/h (0 Bft) NO 45 12,8 C 13,8 C 2,7 km/h (1 Bft)
22.06.2013 00:55 13,7 C 94 % 1022,2 hPa 0,0 l/m 1,0 km/h (0 Bft) O-NO 67 12,8 C 13,7 C 3,4 km/h (1 Bft)
22.06.2013 01:00 13,5 C 94 % 1022,2 hPa 0,7 l/m 2,4 km/h (1 Bft) O-NO 67 12,6 C 13,7 C 2,9 km/h (1 Bft)
22.06.2013 01:05 13,5 C 94 % 1022,1 hPa 0,0 l/m 2,6 km/h (1 Bft) NO 45 12,6 C 13,6 C 0,0 km/h (0 Bft)
22.06.2013 01:10 13,5 C 94 % 1022,1 hPa 0,7 l/m 1,9 km/h (1 Bft) N-NO 22 12,6 C 13,6 C 0,0 km/h (0 Bft)
22.06.2013 01:15 13,5 C 94 % 1022,1 hPa 0,0 l/m 1,0 km/h (0 Bft) O-SO 112 12,6 C 13,6 C 0,0 km/h (0 Bft)
22.06.2013 01:20 13,5 C 94 % 1022,1 hPa 0,0 l/m 0,2 km/h (0 Bft) N 360 12,6 C 13,5 C 0,0 km/h (0 Bft)
22.06.2013 01:25 13,5 C 94 % 1022,0 hPa 0,0 l/m 0,2 km/h (0 Bft) NO 45 12,6 C 13,5 C 0,0 km/h (0 Bft)
22.06.2013 01:30 13,5 C 94 % 1022,0 hPa 0,0 l/m 0,2 km/h (0 Bft) O-SO 112 12,6 C 13,5 C 0,0 km/h (0 Bft)
22.06.2013 01:35 13,5 C 94 % 1022,0 hPa 0,7 l/m 0,2 km/h (0 Bft) O-SO 112 12,6 C 13,5 C 0,0 km/h (0 Bft)
22.06.2013 01:40 13,5 C 94 % 1022,0 hPa 0,0 l/m 0,0 km/h (0 Bft) O 90 12,6 C 13,5 C 0,0 km/h (0 Bft)
22.06.2013 01:45 13,5 C 94 % 1022,1 hPa 0,0 l/m 0,0 km/h (0 Bft) O 90 12,6 C 13,5 C 0,0 km/h (0 Bft)
22.06.2013 01:50 13,3 C 94 % 1022,1 hPa 0,7 l/m 0,0 km/h (0 Bft) NO 45 12,4 C 13,4 C 0,0 km/h (0 Bft)
22.06.2013 01:55 13,3 C 94 % 1022,1 hPa 0,0 l/m 0,0 km/h (0 Bft) NO 45 12,4 C 13,4 C 0,0 km/h (0 Bft)
22.06.2013 02:00 13,3 C 94 % 1022,1 hPa 0,0 l/m 0,0 km/h (0 Bft) NO 45 12,4 C 13,3 C 0,0 km/h (0 Bft)
22.06.2013 02:05 13,3 C 94 % 1022,1 hPa 0,0 l/m 0,0 km/h (0 Bft) W-SW 247 12,4 C 13,3 C 0,0 km/h (0 Bft)
22.06.2013 02:10 13,3 C 94 % 1022,1 hPa 0,0 l/m 0,0 km/h (0 Bft) N 360 12,4 C 13,3 C 0,0 km/h (0 Bft)
22.06.2013 02:15 13,3 C 94 % 1022,1 hPa 0,0 l/m 0,0 km/h (0 Bft) NO 45 12,4 C 13,3 C 0,0 km/h (0 Bft)
22.06.2013 02:20 13,3 C 94 % 1022,1 hPa 0,7 l/m 0,0 km/h (0 Bft) S 180 12,4 C 13,2 C 0,0 km/h (0 Bft)
22.06.2013 02:25 13,2 C 94 % 1021,8 hPa 0,0 l/m 0,6 km/h (0 Bft) NO 45 12,3 C 13,2 C 0,0 km/h (0 Bft)
22.06.2013 02:30 13,1 C 94 % 1021,8 hPa 0,0 l/m 1,0 km/h (0 Bft) N-NO 22 12,2 C 13,1 C 4,8 km/h (1 Bft)
22.06.2013 02:35 13,1 C 94 % 1021,8 hPa 0,0 l/m 0,6 km/h (0 Bft) O-NO 67 12,2 C 13,1 C 0,0 km/h (0 Bft)
22.06.2013 02:40 13,1 C 94 % 1021,8 hPa 0,0 l/m 0,8 km/h (0 Bft) O 90 12,2 C 13,0 C 1,9 km/h (1 Bft)
22.06.2013 02:45 13,0 C 94 % 1022,0 hPa 0,0 l/m 0,3 km/h (0 Bft) O-NO 67 12,1 C 13,0 C 0,0 km/h (0 Bft)
22.06.2013 02:50 13,1 C 94 % 1022,0 hPa 0,0 l/m 0,2 km/h (0 Bft) O-SO 112 12,2 C 13,0 C 0,0 km/h (0 Bft)
22.06.2013 02:55 13,1 C 94 % 1022,0 hPa 0,0 l/m 0,2 km/h (0 Bft) W-SW 247 12,2 C 13,0 C 0,0 km/h (0 Bft)
22.06.2013 03:00 13,1 C 94 % 1022,0 hPa 0,7 l/m 0,2 km/h (0 Bft) W-NW 292 12,2 C 13,1 C 0,0 km/h (0 Bft)
22.06.2013 03:05 13,1 C 94 % 1021,8 hPa 0,0 l/m 0,3 km/h (0 Bft) N 360 12,2 C 13,1 C 0,0 km/h (0 Bft)
22.06.2013 03:10 13,0 C 94 % 1021,8 hPa 0,7 l/m 0,2 km/h (0 Bft) W-NW 292 12,1 C 13,0 C 0,0 km/h (0 Bft)
22.06.2013 03:15 13,0 C 94 % 1021,8 hPa 0,0 l/m 0,0 km/h (0 Bft) N-NW 337 12,1 C 13,0 C 0,0 km/h (0 Bft)
22.06.2013 03:20 12,9 C 95 % 1021,8 hPa 0,0 l/m 0,0 km/h (0 Bft) N-NO 22 12,1 C 13,0 C 0,0 km/h (0 Bft)
22.06.2013 03:25 12,9 C 95 % 1021,7 hPa 0,0 l/m 0,2 km/h (0 Bft) SO 135 12,1 C 13,0 C 0,0 km/h (0 Bft)
22.06.2013 03:30 12,8 C 95 % 1021,7 hPa 0,0 l/m 0,2 km/h (0 Bft) NO 45 12,0 C 12,9 C 0,0 km/h (0 Bft)
22.06.2013 03:35 12,9 C 95 % 1021,7 hPa 0,0 l/m 0,2 km/h (0 Bft) N-NO 22 12,1 C 12,9 C 0,0 km/h (0 Bft)
22.06.2013 03:40 12,8 C 95 % 1021,7 hPa 0,7 l/m 0,0 km/h (0 Bft) O-NO 67 12,0 C 12,9 C 0,0 km/h (0 Bft)
22.06.2013 03:45 12,8 C 95 % 1021,7 hPa 0,0 l/m 0,0 km/h (0 Bft) O-NO 67 12,0 C 12,8 C 0,0 km/h (0 Bft)
22.06.2013 03:50 12,8 C 95 % 1021,7 hPa 0,0 l/m 0,3 km/h (0 Bft) O-NO 67 12,0 C 12,9 C 0,0 km/h (0 Bft)
22.06.2013 03:55 12,8 C 95 % 1021,7 hPa 0,0 l/m 0,3 km/h (0 Bft) NO 45 12,0 C 12,9 C 0,0 km/h (0 Bft)
22.06.2013 04:00 12,8 C 95 % 1021,7 hPa 0,0 l/m 0,0 km/h (0 Bft) O-NO 67 12,0 C 12,8 C 0,0 km/h (0 Bft)
22.06.2013 04:05 12,8 C 95 % 1021,6 hPa 0,0 l/m 0,2 km/h (0 Bft) NO 45 12,0 C 12,8 C 0,0 km/h (0 Bft)
22.06.2013 04:10 12,8 C 95 % 1021,6 hPa 0,7 l/m 0,5 km/h (0 Bft) O-NO 67 12,0 C 12,8 C 0,0 km/h (0 Bft)
22.06.2013 04:15 12,8 C 95 % 1021,6 hPa 0,0 l/m 0,5 km/h (0 Bft) N-NO 22 12,0 C 12,8 C 0,0 km/h (0 Bft)
22.06.2013 04:20 12,8 C 95 % 1021,6 hPa 0,0 l/m 0,0 km/h (0 Bft) O-SO 112 12,0 C 12,8 C 0,0 km/h (0 Bft)
22.06.2013 04:25 12,8 C 95 % 1021,6 hPa 0,0 l/m 0,0 km/h (0 Bft) N-NO 22 12,0 C 12,8 C 0,0 km/h (0 Bft)
22.06.2013 04:30 12,8 C 95 % 1021,6 hPa 0,0 l/m 0,0 km/h (0 Bft) W-SW 247 12,0 C 12,8 C 0,0 km/h (0 Bft)
22.06.2013 04:35 12,8 C 95 % 1021,6 hPa 0,0 l/m 0,0 km/h (0 Bft) S-SW 202 12,0 C 12,8 C 0,0 km/h (0 Bft)
22.06.2013 04:40 12,8 C 95 % 1021,6 hPa 0,0 l/m 0,0 km/h (0 Bft) W-NW 292 12,0 C 12,9 C 0,0 km/h (0 Bft)
22.06.2013 04:45 12,8 C 95 % 1021,5 hPa 0,7 l/m 0,0 km/h (0 Bft) W-SW 247 12,0 C 12,9 C 1,8 km/h (1 Bft)
22.06.2013 04:50 12,8 C 95 % 1021,5 hPa 0,0 l/m 0,2 km/h (0 Bft) S-SO 157 12,0 C 12,9 C 0,0 km/h (0 Bft)
22.06.2013 04:55 12,8 C 95 % 1021,5 hPa 0,0 l/m 0,2 km/h (0 Bft) NO 45 12,0 C 12,9 C 0,0 km/h (0 Bft)
22.06.2013 05:00 12,7 C 95 % 1021,5 hPa 0,7 l/m 0,5 km/h (0 Bft) O-NO 67 11,9 C 12,8 C 1,8 km/h (1 Bft)
22.06.2013 05:05 12,7 C 95 % 1021,4 hPa 0,0 l/m 0,8 km/h (0 Bft) O 90 11,9 C 12,7 C 0,0 km/h (0 Bft)
22.06.2013 05:10 12,8 C 95 % 1021,4 hPa 0,0 l/m 0,5 km/h (0 Bft) NO 45 12,0 C 12,7 C 0,0 km/h (0 Bft)
22.06.2013 05:15 12,8 C 95 % 1021,4 hPa 0,0 l/m 0,0 km/h (0 Bft) NO 45 12,0 C 12,7 C 0,0 km/h (0 Bft)
22.06.2013 05:20 12,8 C 95 % 1021,4 hPa 0,0 l/m 0,0 km/h (0 Bft) NO 45 12,0 C 12,8 C 0,0 km/h (0 Bft)
22.06.2013 05:25 12,8 C 95 % 1021,3 hPa 0,0 l/m 0,0 km/h (0 Bft) N-NO 22 12,0 C 12,8 C 0,0 km/h (0 Bft)
22.06.2013 05:30 12,8 C 95 % 1021,3 hPa 0,0 l/m 0,0 km/h (0 Bft) NO 45 12,0 C 12,8 C 0,0 km/h (0 Bft)
22.06.2013 05:35 12,8 C 95 % 1021,3 hPa 0,0 l/m 0,0 km/h (0 Bft) NO 45 12,0 C 12,8 C 0,0 km/h (0 Bft)
22.06.2013 05:40 12,8 C 95 % 1021,3 hPa 0,0 l/m 0,0 km/h (0 Bft) NO 45 12,0 C 12,8 C 0,0 km/h (0 Bft)
22.06.2013 05:45 12,8 C 95 % 1021,2 hPa 0,0 l/m 0,0 km/h (0 Bft) NO 45 12,0 C 12,9 C 0,0 km/h (0 Bft)
22.06.2013 05:50 12,8 C 95 % 1021,2 hPa 0,0 l/m 0,0 km/h (0 Bft) NO 45 12,0 C 12,9 C 0,0 km/h (0 Bft)
22.06.2013 05:55 12,8 C 96 % 1021,2 hPa 0,0 l/m 0,0 km/h (0 Bft) NO 45 12,2 C 12,9 C 0,0 km/h (0 Bft)
22.06.2013 06:00 12,8 C 96 % 1021,2 hPa 0,0 l/m 0,2 km/h (0 Bft) NO 45 12,2 C 12,9 C 0,0 km/h (0 Bft)
22.06.2013 06:05 12,9 C 96 % 1021,4 hPa 0,0 l/m 0,2 km/h (0 Bft) NO 45 12,3 C 12,9 C 0,0 km/h (0 Bft)
22.06.2013 06:10 12,9 C 96 % 1021,4 hPa 0,0 l/m 0,0 km/h (0 Bft) NO 45 12,3 C 12,9 C 0,0 km/h (0 Bft)
22.06.2013 06:15 13,0 C 95 % 1021,4 hPa 0,0 l/m 0,0 km/h (0 Bft) NO 45 12,2 C 12,9 C 0,0 km/h (0 Bft)
22.06.2013 06:20 13,0 C 95 % 1021,4 hPa 0,0 l/m 0,0 km/h (0 Bft) NO 45 12,2 C 12,9 C 0,0 km/h (0 Bft)
22.06.2013 06:25 13,0 C 95 % 1021,5 hPa 0,0 l/m 0,0 km/h (0 Bft) NO 45 12,2 C 13,0 C 0,0 km/h (0 Bft)
22.06.2013 06:30 13,0 C 95 % 1021,5 hPa 0,0 l/m 0,0 km/h (0 Bft) NO 45 12,2 C 13,0 C 0,0 km/h (0 Bft)
22.06.2013 06:35 13,0 C 95 % 1021,5 hPa 0,0 l/m 0,0 km/h (0 Bft) NO 45 12,2 C 13,1 C 0,0 km/h (0 Bft)
22.06.2013 06:40 13,1 C 95 % 1021,5 hPa 0,0 l/m 0,0 km/h (0 Bft) N-NO 22 12,3 C 13,1 C 0,0 km/h (0 Bft)
22.06.2013 06:45 13,0 C 95 % 1021,4 hPa 0,0 l/m 0,0 km/h (0 Bft) N-NO 22 12,2 C 13,1 C 0,0 km/h (0 Bft)
22.06.2013 06:50 13,1 C 95 % 1021,4 hPa 0,0 l/m 0,0 km/h (0 Bft) O-NO 67 12,3 C 13,1 C 0,0 km/h (0 Bft)
22.06.2013 06:55 13,1 C 95 % 1021,4 hPa 0,0 l/m 0,0 km/h (0 Bft) O-NO 67 12,3 C 13,1 C 0,0 km/h (0 Bft)
22.06.2013 07:00 13,1 C 95 % 1021,4 hPa 0,0 l/m 0,0 km/h (0 Bft) NO 45 12,3 C 13,1 C 0,0 km/h (0 Bft)
22.06.2013 07:05 13,1 C 95 % 1021,4 hPa 0,0 l/m 0,0 km/h (0 Bft) NO 45 12,3 C 13,1 C 0,0 km/h (0 Bft)
22.06.2013 07:10 13,2 C 95 % 1021,4 hPa 0,0 l/m 0,0 km/h (0 Bft) O-NO 67 12,4 C 13,2 C 0,0 km/h (0 Bft)
22.06.2013 07:15 13,2 C 95 % 1021,4 hPa 0,0 l/m 0,0 km/h (0 Bft) O-NO 67 12,4 C 13,2 C 0,0 km/h (0 Bft)
22.06.2013 07:20 13,2 C 95 % 1021,4 hPa 0,0 l/m 0,0 km/h (0 Bft) O-NO 67 12,4 C 13,2 C 0,0 km/h (0 Bft)
22.06.2013 07:25 13,3 C 95 % 1021,5 hPa 0,7 l/m 0,0 km/h (0 Bft) NO 45 12,5 C 13,3 C 0,0 km/h (0 Bft)
22.06.2013 07:30 13,3 C 95 % 1021,5 hPa 0,0 l/m 0,0 km/h (0 Bft) NO 45 12,5 C 13,4 C 0,0 km/h (0 Bft)
22.06.2013 07:35 13,4 C 95 % 1021,5 hPa 0,0 l/m 0,0 km/h (0 Bft) NO 45 12,6 C 13,4 C 0,0 km/h (0 Bft)
22.06.2013 07:40 13,6 C 95 % 1021,5 hPa 0,0 l/m 0,0 km/h (0 Bft) NO 45 12,8 C 13,7 C 0,0 km/h (0 Bft)
22.06.2013 07:45 13,7 C 95 % 1021,3 hPa 0,0 l/m 0,0 km/h (0 Bft) O 90 12,9 C 13,8 C 0,0 km/h (0 Bft)
22.06.2013 07:50 13,7 C 95 % 1021,3 hPa 0,0 l/m 0,0 km/h (0 Bft) O 90 12,9 C 13,8 C 0,0 km/h (0 Bft)
22.06.2013 07:55 13,7 C 95 % 1021,3 hPa 0,0 l/m 0,0 km/h (0 Bft) O 90 12,9 C 13,8 C 0,0 km/h (0 Bft)
22.06.2013 08:00 13,9 C 95 % 1021,3 hPa 0,0 l/m 0,0 km/h (0 Bft) W-NW 292 13,1 C 14,0 C 0,0 km/h (0 Bft)
22.06.2013 08:05 13,8 C 95 % 1021,5 hPa 0,0 l/m 0,2 km/h (0 Bft) W-NW 292 13,0 C 14,1 C 1,8 km/h (1 Bft)
22.06.2013 08:10 13,8 C 95 % 1021,5 hPa 0,0 l/m 0,5 km/h (0 Bft) N-NW 337 13,0 C 14,1 C 0,0 km/h (0 Bft)
22.06.2013 08:15 13,8 C 95 % 1021,5 hPa 0,0 l/m 0,5 km/h (0 Bft) W-NW 292 13,0 C 14,1 C 0,0 km/h (0 Bft)
22.06.2013 08:20 13,9 C 95 % 1021,5 hPa 0,0 l/m 0,0 km/h (0 Bft) W 270 13,1 C 14,3 C 0,0 km/h (0 Bft)
22.06.2013 08:25 13,9 C 95 % 1021,5 hPa 0,0 l/m 0,2 km/h (0 Bft) W-NW 292 13,1 C 14,4 C 2,3 km/h (1 Bft)
22.06.2013 08:30 14,1 C 95 % 1021,5 hPa 0,0 l/m 0,5 km/h (0 Bft) W-SW 247 13,3 C 14,6 C 2,1 km/h (1 Bft)
22.06.2013 08:35 14,2 C 95 % 1021,5 hPa 0,0 l/m 1,0 km/h (0 Bft) W-SW 247 13,4 C 14,7 C 2,3 km/h (1 Bft)
22.06.2013 08:40 14,2 C 95 % 1021,5 hPa 0,0 l/m 0,8 km/h (0 Bft) N-NW 337 13,4 C 14,9 C 0,0 km/h (0 Bft)
22.06.2013 08:45 14,1 C 95 % 1021,4 hPa 0,0 l/m 0,6 km/h (0 Bft) N-NO 22 13,3 C 15,0 C 2,9 km/h (1 Bft)
22.06.2013 08:50 14,0 C 95 % 1021,4 hPa 0,0 l/m 0,3 km/h (0 Bft) N 360 13,2 C 15,1 C 0,0 km/h (0 Bft)
22.06.2013 08:55 14,0 C 95 % 1021,4 hPa 0,0 l/m 0,2 km/h (0 Bft) W-NW 292 13,2 C 15,1 C 0,0 km/h (0 Bft)
22.06.2013 09:00 14,1 C 95 % 1021,4 hPa 0,0 l/m 0,8 km/h (0 Bft) W-NW 292 13,3 C 15,0 C 3,1 km/h (1 Bft)
22.06.2013 09:05 14,1 C 95 % 1021,6 hPa 0,0 l/m 1,1 km/h (1 Bft) W-NW 292 13,3 C 15,0 C 1,9 km/h (1 Bft)
22.06.2013 09:10 14,0 C 95 % 1021,6 hPa 0,0 l/m 1,3 km/h (1 Bft) W-NW 292 13,2 C 14,8 C 0,0 km/h (0 Bft)
22.06.2013 09:15 14,0 C 95 % 1021,6 hPa 0,0 l/m 1,4 km/h (1 Bft) NO 45 13,2 C 14,7 C 2,7 km/h (1 Bft)
22.06.2013 09:20 13,8 C 95 % 1021,6 hPa 0,0 l/m 1,0 km/h (0 Bft) O 90 13,0 C 14,6 C 0,0 km/h (0 Bft)
22.06.2013 09:25 13,9 C 95 % 1021,7 hPa 0,0 l/m 0,6 km/h (0 Bft) N 360 13,1 C 14,5 C 0,0 km/h (0 Bft)
22.06.2013 09:30 13,8 C 95 % 1021,7 hPa 0,0 l/m 0,3 km/h (0 Bft) N-NW 337 13,0 C 14,5 C 2,6 km/h (1 Bft)
22.06.2013 09:35 13,9 C 95 % 1021,7 hPa 0,0 l/m 0,6 km/h (0 Bft) N-NW 337 13,1 C 14,4 C 1,9 km/h (1 Bft)
22.06.2013 09:40 13,6 C 95 % 1021,7 hPa 0,0 l/m 1,9 km/h (1 Bft) W-NW 292 12,8 C 14,4 C 8,0 km/h (2 Bft)
22.06.2013 09:45 13,2 C 95 % 1021,9 hPa 0,0 l/m 2,7 km/h (1 Bft) NO 45 12,4 C 14,0 C 2,6 km/h (1 Bft)
22.06.2013 09:50 13,1 C 95 % 1021,9 hPa 0,0 l/m 3,1 km/h (1 Bft) W-SW 247 12,3 C 13,7 C 5,5 km/h (1 Bft)
22.06.2013 09:55 13,0 C 95 % 1021,9 hPa 0,0 l/m 2,3 km/h (1 Bft) W-SW 247 12,2 C 13,4 C 3,2 km/h (1 Bft)
22.06.2013 10:00 13,0 C 95 % 1021,9 hPa 0,0 l/m 2,6 km/h (1 Bft) S-SW 202 12,2 C 13,2 C 0,0 km/h (0 Bft)
22.06.2013 10:05 13,1 C 95 % 1021,9 hPa 0,0 l/m 1,8 km/h (1 Bft) S-SW 202 12,3 C 13,2 C 0,0 km/h (0 Bft)
22.06.2013 10:10 13,4 C 95 % 1021,9 hPa 0,0 l/m 1,3 km/h (1 Bft) S 180 12,6 C 13,2 C 0,0 km/h (0 Bft)
22.06.2013 10:15 13,6 C 95 % 1021,9 hPa 0,0 l/m 1,9 km/h (1 Bft) SW 225 12,8 C 13,4 C 2,3 km/h (1 Bft)
22.06.2013 10:20 13,6 C 95 % 1021,9 hPa 0,0 l/m 1,0 km/h (0 Bft) W 270 12,8 C 13,7 C 0,0 km/h (0 Bft)
22.06.2013 10:25 13,7 C 95 % 1021,7 hPa 0,0 l/m 0,6 km/h (0 Bft) W 270 12,9 C 13,7 C 2,6 km/h (1 Bft)
22.06.2013 10:30 13,7 C 95 % 1021,7 hPa 0,0 l/m 1,4 km/h (1 Bft) W 270 12,9 C 13,7 C 1,9 km/h (1 Bft)
22.06.2013 10:35 13,7 C 95 % 1021,7 hPa 0,0 l/m 1,6 km/h (1 Bft) W 270 12,9 C 13,8 C 0,0 km/h (0 Bft)
22.06.2013 10:40 13,7 C 95 % 1021,7 hPa 0,0 l/m 0,5 km/h (0 Bft) S-SW 202 12,9 C 13,8 C 0,0 km/h (0 Bft)
22.06.2013 10:45 13,8 C 95 % 1021,8 hPa 0,0 l/m 0,2 km/h (0 Bft) W-SW 247 13,0 C 13,8 C 1,6 km/h (1 Bft)
22.06.2013 10:50 13,7 C 95 % 1021,8 hPa 0,0 l/m 1,4 km/h (1 Bft) W-SW 247 12,9 C 13,8 C 5,3 km/h (1 Bft)
22.06.2013 10:55 13,7 C 95 % 1021,8 hPa 0,0 l/m 1,9 km/h (1 Bft) W-NW 292 12,9 C 13,7 C 3,4 km/h (1 Bft)
22.06.2013 11:00 13,6 C 95 % 1021,8 hPa 0,0 l/m 2,6 km/h (1 Bft) S 180 12,8 C 13,7 C 5,1 km/h (1 Bft)
22.06.2013 11:05 13,4 C 95 % 1022,0 hPa 0,0 l/m 3,1 km/h (1 Bft) SW 225 12,6 C 13,6 C 6,1 km/h (2 Bft)
22.06.2013 11:10 13,4 C 95 % 1022,0 hPa 0,0 l/m 4,2 km/h (1 Bft) W-SW 247 12,6 C 13,4 C 4,2 km/h (1 Bft)
22.06.2013 11:15 13,6 C 95 % 1022,0 hPa 0,0 l/m 4,3 km/h (1 Bft) S-SW 202 12,8 C 13,4 C 4,0 km/h (1 Bft)
22.06.2013 11:20 13,6 C 95 % 1022,0 hPa 0,0 l/m 3,7 km/h (1 Bft) W-NW 292 12,8 C 13,6 C 3,7 km/h (1 Bft)
22.06.2013 11:25 13,7 C 95 % 1021,9 hPa 0,0 l/m 3,2 km/h (1 Bft) S-SW 202 12,9 C 13,7 C 3,9 km/h (1 Bft)
22.06.2013 11:30 13,7 C 95 % 1021,9 hPa 0,0 l/m 3,4 km/h (1 Bft) W-SW 247 12,9 C 13,7 C 2,4 km/h (1 Bft)
22.06.2013 11:35 13,8 C 95 % 1021,9 hPa 0,0 l/m 3,4 km/h (1 Bft) W-SW 247 13,0 C 13,9 C 3,5 km/h (1 Bft)
22.06.2013 11:40 14,0 C 94 % 1021,9 hPa 0,0 l/m 3,1 km/h (1 Bft) S 180 13,0 C 14,3 C 2,6 km/h (1 Bft)
22.06.2013 11:45 14,1 C 94 % 1022,2 hPa 0,0 l/m 2,9 km/h (1 Bft) S 180 13,1 C 14,6 C 5,5 km/h (1 Bft)
22.06.2013 11:50 14,4 C 94 % 1022,2 hPa 0,0 l/m 2,6 km/h (1 Bft) W-NW 292 13,4 C 15,1 C 3,1 km/h (1 Bft)
22.06.2013 11:55 14,2 C 94 % 1022,2 hPa 0,0 l/m 2,6 km/h (1 Bft) W-NW 292 13,2 C 15,3 C 2,6 km/h (1 Bft)
22.06.2013 12:00 14,1 C 94 % 1022,2 hPa 0,0 l/m 1,8 km/h (1 Bft) N-NW 337 13,1 C 15,3 C 1,6 km/h (1 Bft)
22.06.2013 12:05 14,3 C 94 % 1022,0 hPa 0,0 l/m 1,4 km/h (1 Bft) W 270 13,3 C 15,5 C 2,9 km/h (1 Bft)
22.06.2013 12:10 14,3 C 94 % 1022,0 hPa 0,0 l/m 1,3 km/h (1 Bft) W-NW 292 13,3 C 15,6 C 2,1 km/h (1 Bft)
22.06.2013 12:15 14,1 C 94 % 1022,0 hPa 0,0 l/m 2,1 km/h (1 Bft) W-NW 292 13,1 C 15,5 C 2,7 km/h (1 Bft)
22.06.2013 12:20 14,2 C 94 % 1022,0 hPa 0,0 l/m 2,3 km/h (1 Bft) W-SW 247 13,2 C 15,2 C 0,0 km/h (0 Bft)
22.06.2013 12:25 14,5 C 94 % 1021,9 hPa 0,0 l/m 1,9 km/h (1 Bft) N-NW 337 13,5 C 15,4 C 2,4 km/h (1 Bft)
22.06.2013 12:30 14,6 C 94 % 1021,9 hPa 0,0 l/m 1,9 km/h (1 Bft) S 180 13,6 C 15,7 C 1,6 km/h (1 Bft)
22.06.2013 12:35 14,8 C 94 % 1021,9 hPa 0,0 l/m 1,9 km/h (1 Bft) W 270 13,8 C 15,8 C 3,4 km/h (1 Bft)
22.06.2013 12:40 14,6 C 93 % 1021,9 hPa 0,0 l/m 1,9 km/h (1 Bft) S-SW 202 13,5 C 15,9 C 2,6 km/h (1 Bft)
22.06.2013 12:45 14,5 C 93 % 1022,1 hPa 0,0 l/m 1,9 km/h (1 Bft) W-SW 247 13,4 C 15,9 C 0,0 km/h (0 Bft)
22.06.2013 12:50 14,9 C 93 % 1022,1 hPa 0,0 l/m 1,8 km/h (1 Bft) W 270 13,8 C 16,0 C 3,7 km/h (1 Bft)
22.06.2013 12:55 14,7 C 93 % 1022,1 hPa 0,0 l/m 1,8 km/h (1 Bft) S-SW 202 13,6 C 16,0 C 2,3 km/h (1 Bft)
22.06.2013 13:00 14,5 C 93 % 1022,1 hPa 0,0 l/m 1,9 km/h (1 Bft) W 270 13,4 C 15,8 C 2,7 km/h (1 Bft)
22.06.2013 13:05 14,5 C 93 % 1021,9 hPa 0,0 l/m 1,8 km/h (1 Bft) W-SW 247 13,4 C 15,7 C 5,1 km/h (1 Bft)
22.06.2013 13:10 14,4 C 93 % 1021,9 hPa 0,0 l/m 2,6 km/h (1 Bft) W-SW 247 13,3 C 15,6 C 2,6 km/h (1 Bft)
22.06.2013 13:15 15,0 C 93 % 1021,9 hPa 0,0 l/m 2,9 km/h (1 Bft) W-NW 292 13,9 C 15,8 C 2,6 km/h (1 Bft)
22.06.2013 13:20 15,5 C 92 % 1021,9 hPa 0,0 l/m 2,7 km/h (1 Bft) W-SW 247 14,2 C 16,7 C 6,0 km/h (2 Bft)
22.06.2013 13:25 16,3 C 91 % 1022,2 hPa 0,0 l/m 2,4 km/h (1 Bft) W-NW 292 14,8 C 17,3 C 4,5 km/h (1 Bft)
22.06.2013 13:30 16,2 C 90 % 1022,2 hPa 0,0 l/m 2,6 km/h (1 Bft) S 180 14,6 C 18,1 C 3,9 km/h (1 Bft)
22.06.2013 13:35 16,1 C 90 % 1022,2 hPa 0,0 l/m 2,9 km/h (1 Bft) W-SW 247 14,5 C 18,3 C 2,9 km/h (1 Bft)
22.06.2013 13:40 15,9 C 90 % 1022,2 hPa 0,0 l/m 2,7 km/h (1 Bft) W-SW 247 14,3 C 18,2 C 5,5 km/h (1 Bft)
22.06.2013 13:45 15,6 C 89 % 1022,2 hPa 0,0 l/m 2,7 km/h (1 Bft) W-SW 247 13,8 C 17,8 C 3,2 km/h (1 Bft)
22.06.2013 13:50 15,4 C 89 % 1022,2 hPa 0,0 l/m 3,1 km/h (1 Bft) S-SW 202 13,6 C 17,4 C 4,3 km/h (1 Bft)
22.06.2013 13:55 15,5 C 89 % 1022,2 hPa 0,0 l/m 3,2 km/h (1 Bft) W 270 13,7 C 17,1 C 4,2 km/h (1 Bft)
22.06.2013 14:00 15,4 C 89 % 1022,2 hPa 0,0 l/m 2,9 km/h (1 Bft) W-SW 247 13,6 C 17,0 C 2,3 km/h (1 Bft)
22.06.2013 14:05 15,4 C 89 % 1022,1 hPa 0,0 l/m 2,4 km/h (1 Bft) O-SO 112 13,6 C 17,2 C 1,6 km/h (1 Bft)
22.06.2013 14:10 16,1 C 89 % 1022,1 hPa 0,0 l/m 2,1 km/h (1 Bft) W-SW 247 14,3 C 17,5 C 2,7 km/h (1 Bft)
22.06.2013 14:15 16,8 C 89 % 1022,1 hPa 0,0 l/m 1,9 km/h (1 Bft) W-NW 292 15,0 C 18,2 C 2,3 km/h (1 Bft)
22.06.2013 14:20 17,2 C 89 % 1022,1 hPa 0,0 l/m 2,4 km/h (1 Bft) W-NW 292 15,4 C 19,2 C 2,1 km/h (1 Bft)
22.06.2013 14:25 17,0 C 88 % 1022,0 hPa 0,0 l/m 2,3 km/h (1 Bft) S-SW 202 15,0 C 19,5 C 2,1 km/h (1 Bft)
22.06.2013 14:30 17,2 C 86 % 1022,0 hPa 0,0 l/m 1,4 km/h (1 Bft) W 270 14,8 C 20,7 C 3,4 km/h (1 Bft)
22.06.2013 14:35 17,2 C 87 % 1022,0 hPa 0,0 l/m 2,3 km/h (1 Bft) W-NW 292 15,0 C 20,6 C 5,8 km/h (2 Bft)
22.06.2013 14:40 17,3 C 87 % 1022,0 hPa 0,0 l/m 3,9 km/h (1 Bft) W-SW 247 15,1 C 19,9 C 2,4 km/h (1 Bft)
22.06.2013 14:45 17,5 C 88 % 1022,0 hPa 0,0 l/m 2,7 km/h (1 Bft) N-NO 22 15,5 C 20,0 C 2,6 km/h (1 Bft)
22.06.2013 14:50 17,7 C 88 % 1022,0 hPa 0,0 l/m 1,3 km/h (1 Bft) S 180 15,7 C 20,3 C 2,1 km/h (1 Bft)
22.06.2013 14:55 18,0 C 87 % 1022,0 hPa 0,0 l/m 2,3 km/h (1 Bft) W-NW 292 15,8 C 20,2 C 3,1 km/h (1 Bft)
22.06.2013 15:00 17,8 C 87 % 1022,0 hPa 0,0 l/m 2,9 km/h (1 Bft) W 270 15,6 C 20,1 C 2,6 km/h (1 Bft)
22.06.2013 15:05 17,5 C 87 % 1021,9 hPa 0,0 l/m 2,6 km/h (1 Bft) W-SW 247 15,3 C 19,7 C 2,4 km/h (1 Bft)
22.06.2013 15:10 17,4 C 88 % 1021,9 hPa 0,0 l/m 2,3 km/h (1 Bft) S 180 15,4 C 19,2 C 3,1 km/h (1 Bft)
22.06.2013 15:15 17,4 C 88 % 1021,9 hPa 0,0 l/m 2,7 km/h (1 Bft) S 180 15,4 C 18,9 C 3,2 km/h (1 Bft)
22.06.2013 15:20 17,6 C 88 % 1021,9 hPa 0,0 l/m 3,2 km/h (1 Bft) S 180 15,6 C 18,9 C 6,8 km/h (2 Bft)
22.06.2013 15:25 17,1 C 87 % 1021,9 hPa 0,0 l/m 3,2 km/h (1 Bft) S 180 14,9 C 18,7 C 2,6 km/h (1 Bft)
22.06.2013 15:30 16,7 C 88 % 1021,9 hPa 0,0 l/m 4,3 km/h (1 Bft) W-SW 247 14,7 C 17,9 C 5,1 km/h (1 Bft)
22.06.2013 15:35 16,7 C 88 % 1021,9 hPa 0,0 l/m 4,3 km/h (1 Bft) S 180 14,7 C 17,7 C 4,3 km/h (1 Bft)
22.06.2013 15:40 16,8 C 88 % 1021,9 hPa 0,0 l/m 4,5 km/h (1 Bft) S 180 14,8 C 17,5 C 9,7 km/h (2 Bft)
22.06.2013 15:45 16,5 C 88 % 1021,2 hPa 0,0 l/m 4,7 km/h (1 Bft) W-SW 247 14,5 C 17,3 C 6,1 km/h (2 Bft)
22.06.2013 15:50 16,1 C 87 % 1021,2 hPa 0,0 l/m 4,5 km/h (1 Bft) W-SW 247 13,9 C 17,0 C 10,0 km/h (2 Bft)
22.06.2013 15:55 16,0 C 87 % 1021,2 hPa 0,0 l/m 4,3 km/h (1 Bft) S 180 13,8 C 16,8 C 6,9 km/h (2 Bft)
22.06.2013 16:00 16,2 C 88 % 1021,2 hPa 0,0 l/m 4,0 km/h (1 Bft) S-SO 157 14,2 C 16,8 C 2,9 km/h (1 Bft)
22.06.2013 16:05 16,5 C 88 % 1021,1 hPa 0,0 l/m 3,2 km/h (1 Bft) S 180 14,5 C 17,2 C 4,0 km/h (1 Bft)
22.06.2013 16:10 17,1 C 88 % 1021,1 hPa 0,0 l/m 2,3 km/h (1 Bft) S 180 15,1 C 17,9 C 0,0 km/h (0 Bft)
22.06.2013 16:15 17,5 C 88 % 1021,1 hPa 0,0 l/m 1,4 km/h (1 Bft) W 270 15,5 C 18,7 C 1,9 km/h (1 Bft)
22.06.2013 16:20 17,6 C 88 % 1021,1 hPa 0,0 l/m 1,6 km/h (1 Bft) SO 135 15,6 C 19,3 C 0,0 km/h (0 Bft)
22.06.2013 16:25 17,4 C 87 % 1021,7 hPa 0,0 l/m 2,6 km/h (1 Bft) W-NW 292 15,2 C 19,2 C 3,4 km/h (1 Bft)
22.06.2013 16:30 17,4 C 86 % 1021,7 hPa 0,0 l/m 2,9 km/h (1 Bft) O-SO 112 15,0 C 19,1 C 3,5 km/h (1 Bft)
22.06.2013 16:35 17,8 C 85 % 1021,7 hPa 0,0 l/m 3,1 km/h (1 Bft) W 270 15,2 C 19,6 C 4,2 km/h (1 Bft)
22.06.2013 16:40 18,0 C 85 % 1021,7 hPa 0,0 l/m 2,4 km/h (1 Bft) W-NW 292 15,4 C 19,9 C 2,4 km/h (1 Bft)
22.06.2013 16:45 18,0 C 83 % 1021,4 hPa 0,0 l/m 2,6 km/h (1 Bft) W-NW 292 15,1 C 19,9 C 1,6 km/h (1 Bft)
22.06.2013 16:50 18,0 C 85 % 1021,4 hPa 0,0 l/m 2,1 km/h (1 Bft) W-NW 292 15,4 C 19,9 C 4,5 km/h (1 Bft)
22.06.2013 16:55 17,8 C 85 % 1021,4 hPa 0,0 l/m 2,1 km/h (1 Bft) S-SW 202 15,2 C 19,5 C 1,9 km/h (1 Bft)
22.06.2013 17:00 17,5 C 84 % 1021,4 hPa 0,0 l/m 2,7 km/h (1 Bft) NW 315 14,8 C 18,9 C 1,6 km/h (1 Bft)
22.06.2013 17:05 17,2 C 84 % 1020,9 hPa 0,0 l/m 2,3 km/h (1 Bft) S-SW 202 14,5 C 18,8 C 3,1 km/h (1 Bft)
22.06.2013 17:10 17,7 C 84 % 1020,9 hPa 0,0 l/m 1,0 km/h (0 Bft) W 270 15,0 C 18,7 C 0,0 km/h (0 Bft)
22.06.2013 17:15 17,8 C 83 % 1020,9 hPa 0,0 l/m 1,0 km/h (0 Bft) S 180 14,9 C 18,8 C 0,0 km/h (0 Bft)
22.06.2013 17:20 17,5 C 84 % 1020,9 hPa 0,0 l/m 0,6 km/h (0 Bft) O-NO 67 14,8 C 18,9 C 0,0 km/h (0 Bft)
22.06.2013 17:25 17,3 C 84 % 1020,7 hPa 0,0 l/m 0,3 km/h (0 Bft) O 90 14,6 C 18,8 C 0,0 km/h (0 Bft)
22.06.2013 17:30 17,1 C 84 % 1020,7 hPa 0,0 l/m 0,6 km/h (0 Bft) N 360 14,4 C 18,7 C 2,9 km/h (1 Bft)
22.06.2013 17:35 16,9 C 83 % 1020,7 hPa 0,0 l/m 0,8 km/h (0 Bft) NO 45 14,0 C 18,4 C 0,0 km/h (0 Bft)
22.06.2013 17:40 17,1 C 83 % 1020,7 hPa 0,0 l/m 0,6 km/h (0 Bft) NW 315 14,2 C 18,2 C 0,0 km/h (0 Bft)
22.06.2013 17:45 17,0 C 83 % 1020,6 hPa 0,0 l/m 0,3 km/h (0 Bft) N-NO 22 14,1 C 18,1 C 0,0 km/h (0 Bft)
22.06.2013 17:50 16,9 C 83 % 1020,6 hPa 0,0 l/m 0,3 km/h (0 Bft) N-NO 22 14,0 C 17,9 C 0,0 km/h (0 Bft)
22.06.2013 17:55 16,8 C 83 % 1020,6 hPa 0,0 l/m 0,3 km/h (0 Bft) N-NW 337 13,9 C 17,8 C 0,0 km/h (0 Bft)
22.06.2013 18:00 16,8 C 83 % 1020,6 hPa 0,0 l/m 1,0 km/h (0 Bft) N-NW 337 13,9 C 17,8 C 2,7 km/h (1 Bft)
22.06.2013 18:05 16,7 C 83 % 1020,5 hPa 0,0 l/m 1,9 km/h (1 Bft) N-NW 337 13,8 C 17,7 C 2,1 km/h (1 Bft)
22.06.2013 18:10 16,7 C 82 % 1020,5 hPa 0,0 l/m 2,7 km/h (1 Bft) N-NO 22 13,6 C 17,5 C 5,1 km/h (1 Bft)
22.06.2013 18:15 16,8 C 82 % 1020,5 hPa 0,0 l/m 2,7 km/h (1 Bft) W-NW 292 13,7 C 17,5 C 1,8 km/h (1 Bft)
22.06.2013 18:20 17,3 C 81 % 1020,5 hPa 0,0 l/m 2,4 km/h (1 Bft) N-NW 337 14,0 C 17,7 C 3,1 km/h (1 Bft)
22.06.2013 18:25 17,0 C 80 % 1020,6 hPa 0,0 l/m 2,4 km/h (1 Bft) NW 315 13,5 C 17,8 C 3,7 km/h (1 Bft)
22.06.2013 18:30 16,7 C 81 % 1020,6 hPa 0,0 l/m 2,6 km/h (1 Bft) N-NO 22 13,4 C 17,5 C 1,6 km/h (1 Bft)
22.06.2013 18:35 16,6 C 82 % 1020,6 hPa 0,0 l/m 2,4 km/h (1 Bft) N-NW 337 13,5 C 17,5 C 2,4 km/h (1 Bft)
22.06.2013 18:40 16,7 C 82 % 1020,6 hPa 0,0 l/m 1,4 km/h (1 Bft) N-NW 337 13,6 C 17,5 C 2,6 km/h (1 Bft)
22.06.2013 18:45 16,8 C 82 % 1020,5 hPa 0,0 l/m 1,3 km/h (1 Bft) N 360 13,7 C 17,5 C 3,4 km/h (1 Bft)
22.06.2013 18:50 17,0 C 81 % 1020,5 hPa 0,0 l/m 1,4 km/h (1 Bft) N 360 13,7 C 17,6 C 2,4 km/h (1 Bft)
22.06.2013 18:55 17,0 C 80 % 1020,5 hPa 0,0 l/m 2,4 km/h (1 Bft) N-NO 22 13,5 C 18,3 C 3,7 km/h (1 Bft)
22.06.2013 19:00 16,9 C 81 % 1020,5 hPa 0,0 l/m 2,6 km/h (1 Bft) O-SO 112 13,6 C 18,2 C 3,4 km/h (1 Bft)
22.06.2013 19:05 17,0 C 81 % 1020,2 hPa 0,0 l/m 1,8 km/h (1 Bft) N-NW 337 13,7 C 18,0 C 0,0 km/h (0 Bft)
22.06.2013 19:10 16,8 C 80 % 1020,2 hPa 0,0 l/m 1,8 km/h (1 Bft) N-NW 337 13,3 C 17,8 C 4,7 km/h (1 Bft)
22.06.2013 19:15 16,8 C 81 % 1020,2 hPa 0,0 l/m 1,6 km/h (1 Bft) N-NW 337 13,5 C 17,6 C 0,0 km/h (0 Bft)
22.06.2013 19:20 16,9 C 81 % 1020,2 hPa 0,0 l/m 1,0 km/h (0 Bft) N 360 13,6 C 17,6 C 0,0 km/h (0 Bft)
22.06.2013 19:25 16,8 C 81 % 1020,2 hPa 0,0 l/m 0,3 km/h (0 Bft) O-NO 67 13,5 C 17,6 C 0,0 km/h (0 Bft)
22.06.2013 19:30 16,8 C 81 % 1020,2 hPa 0,0 l/m 0,2 km/h (0 Bft) S-SO 157 13,5 C 17,7 C 0,0 km/h (0 Bft)
22.06.2013 19:35 16,8 C 81 % 1020,2 hPa 0,0 l/m 0,0 km/h (0 Bft) S 180 13,5 C 17,6 C 0,0 km/h (0 Bft)
22.06.2013 19:40 16,5 C 82 % 1020,2 hPa 0,0 l/m 0,0 km/h (0 Bft) SO 135 13,4 C 17,6 C 0,0 km/h (0 Bft)
22.06.2013 19:45 16,4 C 83 % 1020,3 hPa 0,0 l/m 0,2 km/h (0 Bft) N-NW 337 13,5 C 17,5 C 2,1 km/h (1 Bft)
22.06.2013 19:50 16,4 C 83 % 1020,3 hPa 0,0 l/m 0,6 km/h (0 Bft) N 360 13,5 C 17,2 C 2,7 km/h (1 Bft)
22.06.2013 19:55 16,4 C 83 % 1020,3 hPa 0,0 l/m 0,8 km/h (0 Bft) N-NW 337 13,5 C 17,1 C 0,0 km/h (0 Bft)
22.06.2013 20:00 16,3 C 83 % 1020,3 hPa 0,0 l/m 0,5 km/h (0 Bft) O 90 13,4 C 17,0 C 1,8 km/h (1 Bft)
22.06.2013 20:05 16,2 C 83 % 1020,2 hPa 0,0 l/m 0,3 km/h (0 Bft) O-NO 67 13,3 C 17,0 C 0,0 km/h (0 Bft)
22.06.2013 20:10 15,9 C 84 % 1020,2 hPa 0,0 l/m 0,2 km/h (0 Bft) O-NO 67 13,2 C 16,8 C 0,0 km/h (0 Bft)
22.06.2013 20:15 16,0 C 84 % 1020,2 hPa 0,0 l/m 0,0 km/h (0 Bft) O 90 13,3 C 17,0 C 0,0 km/h (0 Bft)
22.06.2013 20:20 16,3 C 84 % 1020,2 hPa 0,0 l/m 0,0 km/h (0 Bft) O 90 13,6 C 18,8 C 0,0 km/h (0 Bft)
22.06.2013 20:25 16,2 C 84 % 1019,9 hPa 0,0 l/m 0,0 km/h (0 Bft) O 90 13,5 C 19,7 C 0,0 km/h (0 Bft)
22.06.2013 20:30 16,0 C 84 % 1019,9 hPa 0,0 l/m 0,0 km/h (0 Bft) O 90 13,3 C 20,1 C 0,0 km/h (0 Bft)
22.06.2013 20:35 15,7 C 84 % 1019,9 hPa 0,0 l/m 0,0 km/h (0 Bft) O-NO 67 13,0 C 20,1 C 0,0 km/h (0 Bft)
22.06.2013 20:40 15,2 C 84 % 1019,9 hPa 0,0 l/m 0,2 km/h (0 Bft) O 90 12,5 C 20,0 C 0,0 km/h (0 Bft)
22.06.2013 20:45 15,1 C 84 % 1020,1 hPa 0,0 l/m 0,0 km/h (0 Bft) O 90 12,4 C 19,7 C 0,0 km/h (0 Bft)
22.06.2013 20:50 14,8 C 85 % 1020,1 hPa 0,0 l/m 0,0 km/h (0 Bft) NO 45 12,3 C 19,4 C 0,0 km/h (0 Bft)
22.06.2013 20:55 14,6 C 85 % 1020,1 hPa 0,0 l/m 0,0 km/h (0 Bft) NO 45 12,1 C 18,9 C 0,0 km/h (0 Bft)
22.06.2013 21:00 14,5 C 86 % 1020,1 hPa 0,0 l/m 0,0 km/h (0 Bft) O 90 12,2 C 17,7 C 0,0 km/h (0 Bft)
22.06.2013 21:05 14,3 C 86 % 1020,0 hPa 0,0 l/m 0,0 km/h (0 Bft) O-NO 67 12,0 C 17,3 C 0,0 km/h (0 Bft)
22.06.2013 21:10 13,9 C 86 % 1020,0 hPa 0,0 l/m 0,0 km/h (0 Bft) O 90 11,6 C 16,6 C 0,0 km/h (0 Bft)
22.06.2013 21:15 13,7 C 86 % 1020,0 hPa 0,0 l/m 0,0 km/h (0 Bft) NO 45 11,4 C 15,8 C 0,0 km/h (0 Bft)
22.06.2013 21:20 13,3 C 87 % 1020,0 hPa 0,0 l/m 0,0 km/h (0 Bft) O-NO 67 11,2 C 14,6 C 0,0 km/h (0 Bft)
22.06.2013 21:25 13,1 C 87 % 1020,1 hPa 0,0 l/m 0,0 km/h (0 Bft) NO 45 11,0 C 14,0 C 0,0 km/h (0 Bft)
22.06.2013 21:30 12,9 C 87 % 1020,1 hPa 0,0 l/m 0,0 km/h (0 Bft) O-SO 112 10,8 C 13,3 C 0,0 km/h (0 Bft)
22.06.2013 21:35 12,8 C 88 % 1020,1 hPa 0,0 l/m 0,0 km/h (0 Bft) S-SO 157 10,9 C 13,0 C 1,6 km/h (1 Bft)
22.06.2013 21:40 12,6 C 88 % 1020,1 hPa 0,0 l/m 0,0 km/h (0 Bft) NO 45 10,7 C 12,6 C 0,0 km/h (0 Bft)
22.06.2013 21:45 12,6 C 88 % 1019,9 hPa 0,0 l/m 0,0 km/h (0 Bft) O 90 10,7 C 12,5 C 0,0 km/h (0 Bft)
22.06.2013 21:50 12,5 C 88 % 1019,9 hPa 0,0 l/m 0,0 km/h (0 Bft) O-NO 67 10,6 C 12,3 C 0,0 km/h (0 Bft)
22.06.2013 21:55 12,5 C 88 % 1019,9 hPa 0,0 l/m 0,0 km/h (0 Bft) O 90 10,6 C 12,2 C 0,0 km/h (0 Bft)
22.06.2013 22:00 12,5 C 89 % 1019,9 hPa 0,0 l/m 0,2 km/h (0 Bft) O-NO 67 10,7 C 12,2 C 0,0 km/h (0 Bft)
22.06.2013 22:05 12,5 C 89 % 1019,9 hPa 0,0 l/m 0,2 km/h (0 Bft) NO 45 10,7 C 12,2 C 0,0 km/h (0 Bft)
22.06.2013 22:10 12,3 C 89 % 1019,9 hPa 0,0 l/m 0,0 km/h (0 Bft) NO 45 10,5 C 12,2 C 0,0 km/h (0 Bft)
22.06.2013 22:15 12,3 C 89 % 1019,9 hPa 0,0 l/m 0,0 km/h (0 Bft) NO 45 10,5 C 12,1 C 0,0 km/h (0 Bft)
22.06.2013 22:20 12,3 C 89 % 1019,9 hPa 0,0 l/m 0,0 km/h (0 Bft) O-SO 112 10,5 C 12,1 C 0,0 km/h (0 Bft)
22.06.2013 22:25 12,3 C 89 % 1020,1 hPa 0,0 l/m 0,0 km/h (0 Bft) O 90 10,5 C 12,1 C 0,0 km/h (0 Bft)
22.06.2013 22:30 12,3 C 90 % 1020,1 hPa 0,0 l/m 0,0 km/h (0 Bft) NO 45 10,7 C 12,1 C 0,0 km/h (0 Bft)
22.06.2013 22:35 12,3 C 90 % 1020,1 hPa 0,0 l/m 0,0 km/h (0 Bft) O 90 10,7 C 12,1 C 0,0 km/h (0 Bft)
22.06.2013 22:40 12,2 C 90 % 1020,1 hPa 0,0 l/m 0,0 km/h (0 Bft) S-SO 157 10,6 C 12,1 C 0,0 km/h (0 Bft)
22.06.2013 22:45 12,3 C 90 % 1019,9 hPa 0,0 l/m 0,2 km/h (0 Bft) S 180 10,7 C 12,2 C 0,0 km/h (0 Bft)
22.06.2013 22:50 12,5 C 91 % 1019,9 hPa 0,0 l/m 0,2 km/h (0 Bft) NO 45 11,1 C 12,2 C 2,1 km/h (1 Bft)
22.06.2013 22:55 12,4 C 91 % 1019,9 hPa 0,0 l/m 0,0 km/h (0 Bft) W-NW 292 11,0 C 12,3 C 0,0 km/h (0 Bft)
22.06.2013 23:00 12,3 C 91 % 1019,9 hPa 0,0 l/m 0,0 km/h (0 Bft) S 180 10,9 C 12,4 C 0,0 km/h (0 Bft)
22.06.2013 23:05 12,4 C 91 % 1019,9 hPa 0,0 l/m 0,0 km/h (0 Bft) O 90 11,0 C 12,4 C 0,0 km/h (0 Bft)
22.06.2013 23:10 12,3 C 91 % 1019,9 hPa 0,0 l/m 0,0 km/h (0 Bft) O-SO 112 10,9 C 12,2 C 0,0 km/h (0 Bft)
22.06.2013 23:15 12,3 C 91 % 1019,9 hPa 0,0 l/m 0,0 km/h (0 Bft) O-NO 67 10,9 C 12,3 C 0,0 km/h (0 Bft)
22.06.2013 23:20 12,2 C 91 % 1019,9 hPa 0,0 l/m 0,0 km/h (0 Bft) S 180 10,8 C 12,2 C 0,0 km/h (0 Bft)
22.06.2013 23:25 12,2 C 91 % 1020,0 hPa 0,0 l/m 0,0 km/h (0 Bft) N 360 10,8 C 12,2 C 0,0 km/h (0 Bft)
22.06.2013 23:30 12,2 C 91 % 1020,0 hPa 0,0 l/m 0,0 km/h (0 Bft) W-NW 292 10,8 C 12,2 C 0,0 km/h (0 Bft)
22.06.2013 23:35 12,1 C 91 % 1020,0 hPa 0,0 l/m 0,0 km/h (0 Bft) W-NW 292 10,7 C 12,1 C 0,0 km/h (0 Bft)
22.06.2013 23:40 12,1 C 91 % 1020,0 hPa 0,0 l/m 0,0 km/h (0 Bft) NW 315 10,7 C 12,0 C 0,0 km/h (0 Bft)
22.06.2013 23:45 12,1 C 91 % 1019,9 hPa 0,0 l/m 0,0 km/h (0 Bft) N 360 10,7 C 11,9 C 0,0 km/h (0 Bft)
22.06.2013 23:50 12,0 C 91 % 1019,9 hPa 0,0 l/m 0,0 km/h (0 Bft) NW 315 10,6 C 11,9 C 0,0 km/h (0 Bft)
22.06.2013 23:55 12,0 C 91 % 1019,9 hPa 0,0 l/m 0,0 km/h (0 Bft) N-NO 22 10,6 C 11,9 C 0,0 km/h (0 Bft)
_ Min-Zeit 23:55 19:10 23:55 - 23:55 - - 22:25 23:55 23:55
Minimum _ 12,0 C 80 % 1019,9 hPa - 0,0 km/h (0 Bft) - - 10,5 C 11,9 C 0,0 km/h (0 Bft)
_ Max-Zeit 16:50 06:10 14:00 07:25 15:45 - - 14:55 14:30 15:50
Maximum _ 18,0 C 96 % 1022,2 hPa 0,7 l/m 4,7 km/h
W-SW (1 Bft)
- - 15,8 C 20,7 C 10,0 km/h
W-SW (2 Bft)
Durchschnitt _ 14,4 C 91 % 1021,3 hPa #10,3 l/m 1,1 km/h (0 Bft) W-SW - 12,9 C 15,1 C 1,4 km/h (1 Bft)